Location: Newark
(39.9581°N, 97.2014°W)
Time: 19:24:33
(UTC+00:00)

Envisat - Pass Details

Date: 24 January 2020
Orbit: 764 x 766 km, 98.1° (Epoch: 23 February)

Event Time Altitude Azimuth Distance (km) Brightness Sun altitude
Rises 01:21:22 0° 200° (SSW) 3,218 6.6 -19.9°
Reaches altitude 10° 01:24:08 10° 216° (SW) 2,297 6.1 -20.4°
Maximum altitude 01:28:03 22° 266° (W) 1,614 5.5 -21.2°
Drops below altitude 10° 01:31:59 10° 317° (NW) 2,310 5.9 -21.9°
Sets 01:34:48 0° 333° (NNW) 3,241 6.5 -22.5°
